Regional Weather Roundup
Issued by NWS

Home | Current Version | Previous Version | Graphics & Text | Print | Product List | Glossary On
Versions: 1 2 3 4 5 6 7 8 9 10 11 12 13 14 15 16 17 18 19 20 21 22 23 24 25 26 27 28 29 30 31 32 33 34 35 36 37 38 39 40 41 42 43 44 45 46 47 48 49 50
000
ASUS43 KMPX 280701
RWRMN
WEATHER ROUNDUP FOR MINNESOTA
NATIONAL WEATHER SERVICE TWIN CITIES/CHANHASSEN MN
200 AM CDT MON JUL 28 2014


NOTE: "FAIR" INDICATES FEW OR NO CLOUDS BELOW 12,000 FEET WITH NO
SIGNIFICANT WEATHER AND/OR OBSTRUCTIONS TO VISIBILITY. N/A MEANS
CURRENT SKY AND/OR WEATHER CONDITIONS ARE NOT AVAILABLE.

MNZ060>063-068>070-280800-
   Twin Cities Metro

CITY           SKY/WX    TMP DP  RH WIND       PRES   REMARKS
TWIN CITIES    CLOUDY    65  56  72 NW7       30.14R
ST PAUL        CLOUDY    64  56  75 NW7       30.14R
CRYSTAL        CLOUDY    65  56  72 NW5       30.13S
BLAINE         CLOUDY    64  59  82 NW3       30.14S
LAKEVILLE      CLOUDY    61  57  88 CALM      30.14S
EDEN PRAIRIE   CLOUDY    64  58  80 N5        30.13S
SOUTH ST PAUL  CLOUDY    65  56  72 N3        30.13S
LAKE ELMO      CLOUDY    63  57  82 NW3       30.14S
$$
MNZ001>005-007-008-013>017-022>024-027-028-280800-
   Northwest Minnesota

CITY           SKY/WX    TMP DP  RH WIND       PRES   REMARKS
BEMIDJI        CLOUDY    58  55  87 NW6       30.19S
HALLOCK        PTCLDY    55  52  88 NW5       30.22S
ROSEAU         CLOUDY    57  54  88 W5        30.20S
WARROAD        CLOUDY    57  54  88 NW7       30.20S
THIEF RVR FALL CLOUDY    61  55  82 NW7       30.21S
CROOKSTON      CLOUDY    61  57  88 NW7       30.22S
FOSSTON        CLOUDY    57  55  94 NW6       30.21S
DETROIT LAKES  CLOUDY    59  57  94 NW6       30.23R
MOORHEAD       CLOUDY    61  61 100 NW5       30.23R
PARK RAPIDS    CLOUDY    61  55  81 N7        30.19S
$$
MNZ006-009>011-018-025>026-280800-
   North Central Minnesota

CITY           SKY/WX    TMP DP  RH WIND       PRES   REMARKS
BAUDETTE       MOCLDY    57  54  89 W3        30.19S
FLAG ISLAND    CLEAR     64  57  77 N7        30.17S
INTL FALLS     CLEAR     49  48  97 NW3       30.16S
WASKISH        CLOUDY    61  55  82 NW6       30.18S
LONGVILLE      CLOUDY    63  55  77 CALM      30.17S
GRAND RAPIDS   CLOUDY    59  54  82 N3        30.16S
CRANE LAKE     CLOUDY    48  48 100 CALM      30.16S
ORR            MOCLDY    54  52  94 CALM      30.14R
COOK           CLOUDY    52  52 100 CALM      30.16R
$$
MNZ012-019>021-037-280800-
   Northeast Minnesota

CITY           SKY/WX    TMP DP  RH WIND       PRES   REMARKS
DULUTH         MOCLDY    58  53  84 N6        30.13R
ELY            CLOUDY    52  48  87 CALM      30.14R
HIBBING        CLOUDY    57  53  86 NW3       30.15R
EVELETH        CLOUDY    59  52  77 CALM      30.15S
DULUTH HARBOR  CLOUDY    61  55  82 N5        30.12S
TWO HARBORS    CLOUDY    52  46  82 CALM      30.11R
SILVER BAY     CLEAR     48  48 100 CALM      30.10S
GRAND MARAIS     N/A     59  52  77 NW7       30.07F
G MARAIS ARPRT   N/A     52  46  82 W5        30.11F
$$
MNZ029>031-032-039>041-046>048-054>057-064-280800-
   West Central Minnesota

CITY           SKY/WX    TMP DP  RH WIND       PRES   REMARKS
FERGUS FALLS   CLOUDY    61  55  82 N8        30.21S
WHEATON        CLOUDY    57  55  94 W5        30.24R
MORRIS         MOCLDY    61  59  94 W5        30.20R
ALEXANDRIA     CLOUDY    62  59  90 N5        30.21S
ELBOW LAKE     CLOUDY    61  58  92 NW7       30.20S
WADENA         CLOUDY    61  57  88 NW3       30.19S
GLENWOOD       CLOUDY    61  59  94 CALM      30.20S
APPLETON       CLOUDY    64  57  77 N7        30.20R
BENSON         DRIZZLE   61  59  94 NE3       30.20R
ORTONVILLE     MOCLDY    61  55  82 NW6       30.21S
MADISON        MOCLDY    63  59  88 NW7       30.20S
WILLMAR        MOCLDY    64  61  88 N7        30.20R
$$
MNZ033>034-036-042>043-049>051-058-059-280800-
   Central Minnesota

CITY           SKY/WX    TMP DP  RH WIND       PRES   REMARKS
ST CLOUD       CLOUDY    64  58  80 NW5       30.16R
SAUK CENTRE    CLOUDY    61  58  91 NW5       30.19R
PAYNESVILLE    CLOUDY    60  55  83 NW3       30.18S
AITKIN         CLOUDY    63  55  77 NW3       30.15S
PINE RIVER     CLOUDY    63  55  77 NW5       30.20S
BRAINERD       CLOUDY    63  56  78 NW7       30.17S
STAPLES        CLOUDY    61  57  88 NW5       30.18S
LONG PRAIRIE   CLOUDY    59  57  94 NW3       30.19S
LITTLE FALLS   CLOUDY    63  54  72 NW5       30.17S
LITCHFIELD     CLOUDY    63  63 100 CALM      30.18R
BUFFALO        CLOUDY    63  57  80 NW5       30.17R
MAPLE LAKE     CLOUDY    64  59  86 CALM      30.17S
$$
MNZ037-044-045-052-053-280800-
   East Central Minnesota

CITY           SKY/WX    TMP DP  RH WIND       PRES   REMARKS
PRINCETON      CLOUDY    63  59  88 W5        30.15S
MORA           CLOUDY    59  54  82 CALM      30.16S
CAMBRIDGE      MOCLDY    63  54  72 CALM      30.13S
RUSH CITY      CLOUDY    58  56  92 CALM      30.14S
MOOSE LAKE     CLEAR     55  54  94 CALM      30.13R
HINCKLEY       CLOUDY    59  55  88 NW7       30.13S
CLOQUET        CLOUDY    55  54  94 NW6       30.14R
MCGREGOR       CLOUDY    57  54  88 N5        30.16S
$$
MNZ071>073-080-081-089-090-097-098-280800-
   Southwest Minnesota

CITY           SKY/WX    TMP DP  RH WIND       PRES   REMARKS
MONTEVIDEO     CLOUDY    63  57  82 N7        30.20S
GRANITE FALLS  CLOUDY    62  58  88 NW7       30.20S
CANBY          CLOUDY    61  55  82 NW7       30.21F
MARSHALL       PTCLDY    59  55  88 NW8       30.18S
REDWOOD FALLS  LGT RAIN  62  59  90 N6        30.18R
OLIVIA         DRIZZLE   63  59  88 CALM      30.18R
PIPESTONE      CLEAR     55  54  94 NW6       30.22S
WINDOM         CLOUDY    61  57  88 NW10      30.18S
WORTHINGTON    PTCLDY    55  54  94 NW7       30.21R
JACKSON        PTCLDY    59  55  88 NW8       30.18S
TRACY          MOCLDY    61  57  88 CALM      30.20S
SLAYTON        PTCLDY    57  55  94 CALM      30.21S
$$
MNZ065>067-074>077-082>085-091>093-280800-
   South Central Minnesota

CITY           SKY/WX    TMP DP  RH WIND       PRES   REMARKS
MANKATO        CLOUDY    63  57  82 NW5       30.15S
NEW ULM        CLOUDY    63  63 100 NW5       30.16S
ST JAMES       PTCLDY    61  61 100 NW6       30.18R
FAIRMONT       CLOUDY    61  55  82 N7        30.16S
GLENCOE        PTCLDY    63  58  84 NW3       30.16R
FARIBAULT      CLOUDY    64  54  68 CALM      30.15R
OWATONNA       CLOUDY    63  54  72 N3        30.15R
WASECA         CLOUDY    59  52  77 CALM      30.16S
ALBERT LEA     CLOUDY    63  55  77 N3        30.15R
$$
MNZ078>079-086>088-094>096-280800-
   Southeast Minnesota

CITY           SKY/WX    TMP DP  RH WIND       PRES   REMARKS
ROCHESTER      CLOUDY    57  54  89 NW6       30.15R
RED WING       CLOUDY    61  55  82 N3        30.11S
STANTON        CLOUDY    62  57  83 CALM      30.13S
DODGE CENTER   CLOUDY    59  55  88 N7        30.14S
WINONA         CLEAR     57  54  88 N3        30.12S
AUSTIN         CLOUDY    59  55  88 N3        30.14R
PRESTON        CLEAR     55  55 100 N3        30.13R
$$
ABBREVIATIONS USED IN REMARKS
   TC - TEMPERATURES IN CELSIUS
  WCI - WIND CHILL INDEX
   HX - HEAT INDEX
  VSB - VISIBILITY
$$



USA.gov is the U.S. government's official web portal to all federal, state and local government web resources and services.